Location: Unspecified
(0.0000°N, 0.0000°E)
Time: 11:16:01
(UTC+00:00)

ACS3 Solar Sail - Pass Details

Date: 11 May 2025
Orbit: 935 x 1009 km, 97.5° (Epoch: 13 May)

Event Time Altitude Azimuth Distance (km) Brightness Sun altitude
Rises 04:24:38 0° 42° (NE) 3,629 5.8 -21.8°
Reaches altitude 10° 04:27:51 10° 60° (ENE) 2,699 5.3 -21.0°
Maximum altitude 04:31:56 19° 103° (ESE) 2,148 4.3 -20.0°
Drops below altitude 10° 04:36:03 10° 145° (SE) 2,740 4.3 -19.1°
Sets 04:39:19 0° 162° (SSE) 3,704 4.8 -18.3°
